Location: Newark
(46.7000°N, 60.6000°W)
Time: 04:33:31
(UTC+00:00)

A-11 Canister half - Pass Details

Date: 05 November 2020
Orbit: 1525 x 1683 km, 47.3° (Epoch: 23 November)

Event Time Altitude Azimuth Distance (km) Brightness Sun altitude
Rises 23:35:43 0° 291° (WNW) 4,710 12.7 -30.3°
Reaches altitude 10° 23:39:29 10° 278° (W) 3,709 11.9 -30.9°
Maximum altitude 23:46:28 25° 229° (SW) 2,720 10.6 -32.1°
Drops below altitude 10° 23:53:26 10° 179° (S) 3,686 10.9 -33.3°
Enters shadow 23:54:02 - 177° (S) 3,832 10.9 -33.4°
Sets 23:57:11 0° 167° (SSE) 4,674 - -33.9°
